Terminal Aerodrome Forecast
Issued by NWS Medford, OR

Home | Current Version | Previous Version | Text Only | Print | Product List | Glossary On
Versions: 1 2 3 4 5 6 7 8 9 10 11 12
269
FTUS46 KMFR 291739
TAFMFR
TAF
KMFR 291739Z 2918/3018 VRB03KT P6SM SKC
     FM292300 30010G18KT P6SM SKC
     FM300400 VRB03KT P6SM SKC=

USA.gov is the U.S. government's official web portal to all federal, state and local government web resources and services.